Location: Doschendorf
(50.0069°N, 11.0602°E)
Time: 00:54:44
(UTC+00:00)

Meteor 1-14 Rocket - Pass Details

Date: 17 November 2019
Orbit: 834 x 918 km, 81.3° (Epoch: 05 December)

Event Time Altitude Azimuth Distance (km) Brightness Sun altitude
Rises 18:02:31 0° 349° (N) 3,559 7.6 -24.3°
Reaches altitude 10° 18:05:02 10° 353° (N) 2,619 6.8 -24.7°
Enters shadow 18:10:48 63° 65° (ENE) 1,027 4.3 -25.6°
